GW2597 Weather Reports


time (UTC)temp
C
wind
direction
speed
KPH
gust
KPH
rain 1hr
cm
rain 24hr
cm
rain mn
cm
humidity
%
barometer
mb
20260504205144 20 297 6.4 6.4 0.00 0.00 0.00 32 1008.0
20260504204643 20 269 9.7 9.7 0.00 0.00 0.00 30 1008.0
20260504204142 20 288 8.0 9.7 0.00 0.00 0.00 30 1008.0
20260504203640 20 271 8.0 9.7 0.00 0.00 0.00 31 1008.0
20260504203137 21 290 14.5 17.7 0.00 0.00 0.00 29 1008.0
20260504202631 21 276 8.0 9.7 0.00 0.00 0.00 30 1008.0
20260504202129 20 259 4.8 4.8 0.00 0.00 0.00 31 1008.0
20260504201625 20 317 8.0 9.7 0.00 0.00 0.00 31 1008.0
20260504201124 20 300 9.7 9.7 0.00 0.00 0.00 30 1008.0
20260504200620 20 282 8.0 9.7 0.00 0.00 0.00 29 1007.6
20260504200117 20 290 12.9 14.5 0.00 0.00 0.00 31 1008.0
20260504195613 20 296 11.3 11.3 0.00 0.00 0.00 30 1008.0
20260504195109 20 294 4.8 6.4 0.00 0.00 0.00 30 1008.0
20260504194606 20 252 8.0 9.7 0.00 0.00 0.00 31 1008.0
20260504194102 20 262 9.7 9.7 0.00 0.00 0.00 32 1008.0
20260504193558 20 288 11.3 11.3 0.00 0.00 0.00 31 1008.0
20260504193057 20 258 11.3 11.3 0.00 0.00 0.00 31 1008.3
20260504192555 20 275 9.7 9.7 0.00 0.00 0.00 30 1008.0
20260504192052 20 263 6.4 6.4 0.00 0.00 0.00 30 1008.0
20260504191550 20 270 14.5 16.1 0.00 0.00 0.00 30 1008.3
20260504191046 20 312 8.0 9.7 0.00 0.00 0.00 30 1008.3
20260504190543 20 269 8.0 9.7 0.00 0.00 0.00 30 1008.3
20260504190039 20 283 6.4 6.4 0.00 0.00 0.00 30 1008.0
20260504185536 20 290 14.5 16.1 0.00 0.00 0.00 29 1008.3
20260504185032 20 268 6.4 6.4 0.00 0.00 0.00 30 1008.3
20260504184528 20 294 6.4 8.0 0.00 0.00 0.00 30 1008.3
20260504184023 20 283 4.8 4.8 0.00 0.00 0.00 31 1008.3
20260504183521 20 276 8.0 9.7 0.00 0.00 0.00 29 1008.8
20260504183019 20 252 4.8 4.8 0.00 0.00 0.00 31 1008.3
20260504182515 20 272 8.0 9.7 0.00 0.00 0.00 30 1008.8
20260504182013 20 293 9.7 9.7 0.00 0.00 0.00 30 1008.8
20260504181510 20 258 11.3 11.3 0.00 0.00 0.00 29 1008.8
20260504181008 20 295 9.7 9.7 0.00 0.00 0.00 29 1008.3
20260504180507 20 304 12.9 12.9 0.00 0.00 0.00 30 1008.8
20260504180005 20 276 8.0 9.7 0.00 0.00 0.00 30 1008.8
20260504175502 20 283 9.7 9.7 0.00 0.00 0.00 30 1008.8
20260504174959 20 288 11.3 11.3 0.00 0.00 0.00 29 1008.8
20260504174456 20 285 6.4 6.4 0.00 0.00 0.00 29 1008.8
20260504173954 20 264 8.0 8.0 0.00 0.00 0.00 28 1008.8
20260504173450 20 294 8.0 9.7 0.00 0.00 0.00 29 1008.8
20260504172947 19 277 9.7 9.7 0.00 0.00 0.00 29 1008.8
20260504172443 19 264 6.4 6.4 0.00 0.00 0.00 30 1008.8
20260504171940 19 277 9.7 9.7 0.00 0.00 0.00 30 1008.8
20260504171437 19 261 11.3 11.3 0.00 0.00 0.00 31 1009.1
20260504170934 18 282 6.4 6.4 0.00 0.00 0.00 30 1009.1
20260504170430 18 276 14.5 14.5 0.00 0.00 0.00 32 1009.1
20260504160349 17 270 9.7 9.7 0.00 0.00 0.00 33 1009.4
20260504150814 17 276 11.3 12.9 0.00 0.00 0.00 34 1009.8
20260504150311 16 252 12.9 14.5 0.00 0.00 0.00 35 1009.8
20260504141241 15 296 6.4 6.4 0.00 0.00 0.00 39 1010.8
20260504140737 15 270 8.0 8.0 0.00 0.00 0.00 41 1010.8
20260504140233 15 270 6.4 8.0 0.00 0.00 0.00 41 1010.8
20260504130702 12 294 6.4 6.4 0.00 0.00 0.00 48 1011.5
20260504130157 12 276 3.2 3.2 0.00 0.00 0.00 48 1011.5
20260504120122 9 42 0.0 0.0 0.00 0.00 0.00 59 1011.5
20260504110549 6 252 0.0 0.0 0.00 0.00 0.00 70 1011.5
20260504100511 5 258 0.0 0.0 0.00 0.00 0.00 67 1011.5
20260504081904 5 270 0.0 0.0 0.00 0.00 0.00 66 1011.5
20260504081401 5 270 0.0 0.0 0.00 0.00 0.00 69 1011.5
20260504080856 6 270 0.0 0.0 0.00 0.00 0.00 68 1011.5
20260504080354 6 270 0.0 0.0 0.00 0.00 0.00 66 1011.8
20260504070315 5 270 0.0 0.0 0.00 0.00 0.00 67 1011.5
20260504060236 7 270 3.2 3.2 0.00 0.00 0.00 49 1011.5
20260504050703 5 270 0.0 0.0 0.00 0.00 0.00 54 1011.5
20260504050200 5 270 0.0 0.0 0.00 0.00 0.00 57 1011.5
20260504045657 5 270 0.0 0.0 0.00 0.00 0.00 54 1011.5
20260504045152 5 270 0.0 0.0 0.00 0.00 0.00 53 1011.5
20260504044650 6 270 0.0 0.0 0.00 0.00 0.00 52 1011.5
20260504044147 5 270 0.0 0.0 0.00 0.00 0.00 54 1011.5
20260504043644 5 270 0.0 0.0 0.00 0.00 0.00 54 1011.5
20260504043141 5 270 0.0 0.0 0.00 0.00 0.00 56 1011.8
20260504042639 5 270 0.0 0.0 0.00 0.00 0.00 54 1011.5
20260504042135 5 270 0.0 0.0 0.00 0.00 0.00 55 1011.5
20260504041631 5 270 0.0 0.0 0.00 0.00 0.00 54 1011.5
20260504041127 5 270 0.0 0.0 0.00 0.00 0.00 53 1011.5
20260504040624 6 270 1.6 1.6 0.00 0.00 0.00 53 1011.5
20260504040121 6 270 3.2 3.2 0.00 0.00 0.00 53 1011.5
20260504035618 6 270 3.2 3.2 0.00 0.00 0.00 51 1011.5
20260504035114 6 270 3.2 3.2 0.00 0.00 0.00 51 1011.5
20260504034612 6 270 4.8 4.8 0.00 0.00 0.00 51 1011.5
20260504034109 6 270 3.2 3.2 0.00 0.00 0.00 52 1011.5
20260504033607 6 270 3.2 3.2 0.00 0.00 0.00 53 1011.5
20260504033104 6 276 3.2 3.2 0.00 0.00 0.00 52 1011.1
20260504032601 6 276 3.2 3.2 0.00 0.00 0.00 53 1011.5
20260504032058 6 288 4.8 4.8 0.00 0.00 0.00 53 1011.5
20260504031555 6 288 3.2 3.2 0.00 0.00 0.00 53 1011.1
20260504031051 5 288 3.2 3.2 0.00 0.00 0.00 54 1011.5
20260504030548 5 288 3.2 3.2 0.00 0.00 0.00 56 1011.5
20260504030044 6 288 3.2 3.2 0.00 0.00 0.00 53 1011.5
20260504025542 6 294 3.2 3.2 0.00 0.00 0.00 54 1011.5
20260504025038 5 294 3.2 3.2 0.00 0.00 0.00 54 1011.5
20260504024535 6 294 3.2 3.2 0.00 0.00 0.00 55 1011.5
20260504024032 5 294 3.2 3.2 0.00 0.00 0.00 54 1011.5
20260504023529 5 300 3.2 3.2 0.00 0.00 0.00 56 1011.5
20260504023025 5 300 3.2 3.2 0.00 0.00 0.00 56 1011.5
20260504022520 5 300 3.2 3.2 0.00 0.00 0.00 56 1011.5
20260504022017 5 300 3.2 3.2 0.00 0.00 0.00 56 1011.5
20260504021515 5 300 3.2 3.2 0.00 0.00 0.00 56 1011.5
20260504021012 5 300 3.2 3.2 0.00 0.00 0.00 55 1011.5
20260504020508 5 330 3.2 3.2 0.00 0.00 0.00 59 1011.1
20260504020005 5 330 0.0 0.0 0.00 0.00 0.00 56 1011.1
20260504015501 5 330 0.0 0.0 0.00 0.00 0.00 57 1011.1
20260504014957 4 330 0.0 0.0 0.00 0.00 0.00 60 1011.1
20260504014453 4 330 0.0 0.0 0.00 0.00 0.00 66 1011.1
20260504013950 4 330 0.0 0.0 0.00 0.00 0.00 66 1011.1
20260504013449 5 330 0.0 0.0 0.00 0.00 0.00 62 1010.8
20260504012944 5 330 0.0 0.0 0.00 0.00 0.00 61 1010.8
20260504012443 5 330 0.0 0.0 0.00 0.00 0.00 60 1011.1
20260504011940 5 330 0.0 0.0 0.00 0.00 0.00 59 1010.8
20260504011436 5 330 0.0 0.0 0.00 0.00 0.00 59 1010.8
20260504010932 5 330 0.0 0.0 0.00 0.00 0.00 61 1010.8
20260504010429 5 330 0.0 0.0 0.00 0.00 0.00 57 1010.8
20260504005925 5 330 0.0 0.0 0.00 0.00 0.00 58 1010.5
20260504005422 6 330 0.0 0.0 0.00 0.00 0.00 60 1010.8
20260504004919 6 330 0.0 0.0 0.00 0.00 0.00 55 1010.5
20260504004417 7 330 0.0 0.0 0.00 0.00 0.00 55 1010.5
20260504003914 7 330 0.0 0.0 0.00 0.00 0.00 49 1010.5
20260504003410 7 330 0.0 0.0 0.00 0.00 0.00 48 1010.1
20260504002907 7 330 0.0 0.0 0.00 0.00 0.00 47 1010.5
20260504002404 7 330 0.0 0.0 0.00 0.00 0.00 48 1010.1
20260504001901 7 330 0.0 0.0 0.00 0.00 0.00 48 1010.5
20260504001359 7 330 0.0 0.0 0.00 0.00 0.00 48 1010.1
20260504000855 7 330 0.0 0.0 0.00 0.00 0.00 48 1010.1
20260504000354 7 330 0.0 0.0 0.00 0.00 0.00 48 1010.1
20260503235849 7 330 0.0 0.0 0.00 0.00 0.00 49 1010.1
20260503235347 8 330 0.0 0.0 0.00 0.00 0.00 48 1010.1
20260503234844 8 336 0.0 0.0 0.00 0.00 0.00 48 1009.8
20260503234342 8 312 3.2 3.2 0.00 0.00 0.00 46 1010.1
20260503233840 8 318 0.0 0.0 0.00 0.00 0.00 45 1010.1
20260503233336 8 318 3.2 3.2 0.00 0.00 0.00 44 1009.8
20260503232832 8 282 3.2 3.2 0.00 0.00 0.00 43 1009.8
20260503232330 8 294 0.0 0.0 0.00 0.00 0.00 43 1009.8
20260503231827 8 294 1.6 1.6 0.00 0.00 0.00 44 1009.8
20260503231324 8 306 3.2 3.2 0.00 0.00 0.00 44 1009.4
20260503230820 8 288 3.2 3.2 0.00 0.00 0.00 43 1009.8
20260503230317 8 342 3.2 3.2 0.00 0.00 0.00 43 1009.4
20260503225815 9 282 4.8 6.4 0.00 0.00 0.00 42 1009.4
20260503225310 9 306 4.8 4.8 0.00 0.00 0.00 42 1009.4
20260503224807 9 288 4.8 4.8 0.00 0.00 0.00 42 1009.4
20260503224305 9 300 8.0 8.0 0.00 0.00 0.00 42 1009.4
20260503223802 9 282 4.8 4.8 0.00 0.00 0.00 44 1009.4
20260503223300 9 288 6.4 8.0 0.00 0.00 0.00 42 1009.4
20260503222755 9 288 9.7 9.7 0.00 0.00 0.00 41 1009.1
20260503222254 9 300 6.4 6.4 0.00 0.00 0.00 41 1009.4
20260503221752 9 288 6.4 6.4 0.00 0.00 0.00 41 1009.1
20260503221249 9 312 4.8 6.4 0.00 0.00 0.00 39 1009.1
20260503220745 10 306 6.4 6.4 0.00 0.00 0.00 39 1009.1
20260503220243 10 288 4.8 4.8 0.00 0.00 0.00 38 1009.1
20260503215739 10 282 9.7 9.7 0.00 0.00 0.00 38 1009.1
20260503215236 9 300 8.0 8.0 0.00 0.00 0.00 39 1009.1
20260503214734 9 330 3.2 3.2 0.00 0.00 0.00 39 1008.8
20260503214231 9 276 9.7 9.7 0.00 0.00 0.00 40 1009.1
20260503213729 10 306 9.7 9.7 0.00 0.00 0.00 39 1009.1
20260503213226 10 306 4.8 6.4 0.00 0.00 0.00 38 1009.1
20260503212723 9 288 8.0 9.7 0.00 0.00 0.00 39 1009.1
20260503212221 9 294 6.4 6.4 0.00 0.00 0.00 40 1008.8
20260503211718 9 300 11.3 11.3 0.00 0.00 0.00 39 1008.8
20260503211214 9 282 8.0 8.0 0.00 0.00 0.00 41 1008.8
20260503210709 10 294 14.5 16.1 0.00 0.00 0.00 40 1008.8
20260503210207 10 288 4.8 4.8 0.00 0.00 0.00 40 1008.3
20260503205703 10 300 8.0 8.0 0.00 0.00 0.00 40 1008.3